Weather observations for the past three days for
Miami, Kendall-Tamiami Executive Airport
Imperial (Metric)
Date Time (edt) Wind (mph) Vis. (mi.) Weather Sky Cond. Temperature (ºF) Relative Humidity Wind Chill (°F) Heat Index (°F) Pressure Precipitation (in)
Air Dwpt 6 hour altimeter (in) sea level (mb) 1 hr 3 hr 6 hr
Max. Min.
24 20:53 S 5 10.00 A Few Clouds FEW110 77 75 94% 78 29.95 1014.0
24 19:53 SW 5 10.00 Overcast FEW065 OVC090 78.1 75.9 84 75 93% 81 29.95 1014.0 0.51
24 18:53 S 3 10.00 Overcast OVC095 79 75.9 90% 83 29.94 1013.8
24 17:53 Calm 10.00 Light Rain BKN030 OVC070 77 75 94% 78 29.95 1014.1 0.01
24 16:53 Calm 7.00 Light Rain OVC007 75.9 75 97% 75 29.95 1014.3 0.18 0.5
24 15:53 Calm 2.00 Thunderstorm Heavy Rain Fog/Mist OVC009 75 75 100% 72 29.98 1015.1 0.32
24 14:53 N 16 G 30 10.00 Thunderstorm Light Rain SCT026 BKN037 OVC085 79 73.9 85% 83 29.95 1014.2
24 13:53 SE 9 10.00 Overcast SCT044 OVC095 82.9 75 91 80.1 77% 90 29.95 1014.3
24 12:53 Calm 10.00 Partly Cloudy SCT035 90 73 58% 98 29.97 1014.9
24 11:53 NW 7 10.00 A Few Clouds FEW035 89.1 75 63% 99 29.97 1014.9
24 10:53 Calm 10.00 Partly Cloudy SCT020 87.1 73.9 65% 95 29.98 1015.3
24 09:53 Calm 10.00 Fair CLR 84.9 77 77% 95 29.97 1014.9
24 08:53 NW 5 10.00 Fair CLR 82 77 85% 90 29.97 1014.7
24 07:53 Calm 10.00 Fair CLR 80.1 75.9 80.1 75 87% 85 29.96 1014.3
24 06:53 Calm 10.00 Partly Cloudy SCT025 77 75 94% 78 29.95 1014.0
24 05:53 NW 5 10.00 A Few Clouds FEW018 75 73.9 96% 73 29.94 1013.9
24 04:53 Calm 10.00 Fair CLR 75.9 75 97% 75 29.93 1013.6
24 03:53 Calm 10.00 Fair CLR 75.9 75 97% 75 29.93 1013.6
24 02:53 NE 5 10.00 Fair CLR 77 75 94% 78 29.94 1013.8
24 01:53 E 7 10.00 Fair CLR 78.1 73.9 84 75.9 87% 81 29.96 1014.5 0.01 0.01
24 00:53 E 14 10.00 A Few Clouds FEW015 78.1 75 90% 81 30 1015.8
23 23:53 E 7 10.00 Light Rain FEW040 SCT049 BKN070 75.9 73.9 94% 75 30 1015.6
23 22:53 E 9 10.00 A Few Clouds FEW085 81 75.9 85% 87 29.99 1015.6
23 21:53 SE 6 10.00 Fair CLR 82 75 79% 89 29.99 1015.3
23 20:53 SE 8 10.00 Overcast BKN100 OVC110 82.9 75 77% 90 29.98 1015.1
23 19:53 SE 10 10.00 Overcast OVC100 84 73.9 88 84 72% 91 29.98 1015.0
23 18:53 SE 9 10.00 A Few Clouds FEW024 84.9 73.9 70% 92 29.98 1015.1
23 17:53 SE 9 G 20 10.00 Partly Cloudy SCT028 SCT035 84.9 73.9 70% 92 29.97 1014.9
23 16:53 SE 14 10.00 A Few Clouds FEW027 86 73.9 67% 94 29.97 1014.7
23 15:53 SE 12 10.00 A Few Clouds FEW027 86 75 70% 95 29.96 1014.5
23 14:53 E 12 10.00 Partly Cloudy SCT027 88 75.9 68% 99 29.98 1015.0
23 13:53 E 15 G 22 10.00 Partly Cloudy SCT027 SCT035 86 75 87.1 80.1 70% 95 30 1015.8
23 12:53 E 14 10.00 Partly Cloudy FEW023 SCT028 SCT046 86 77 75% 97 30.02 1016.6
23 11:53 SE 10 10.00 Overcast BKN021 BKN029 OVC035 84 75.9 77% 93 30.04 1017.2
23 10:53 SE 9 10.00 Partly Cloudy FEW024 SCT029 84 75 74% 92 30.04 1017.2
23 09:53 SE 9 10.00 A Few Clouds FEW019 FEW031 84 73.9 72% 91 30.03 1016.9
23 08:53 E 9 10.00 Partly Cloudy FEW020 SCT035 80.1 75 85% 85 30.03 1016.9
23 07:53 E 7 10.00 Fair CLR 79 75 79 75 88% 83 30.01 1016.2
23 06:53 E 7 10.00 Mostly Cloudy BKN110 75.9 73 91% 76 30.02 1016.5
23 05:53 E 7 10.00 Fair CLR 75 73.9 96% 73 30 1015.9
23 04:53 E 12 G 25 10.00 Overcast SCT012 BKN016 OVC027 75.9 73.9 94% 75 30.01 1016.1
23 03:53 NE 5 10.00 A Few Clouds FEW021 78.1 77 97% 81 30 1015.8
23 02:53 N 7 10.00 Mostly Cloudy SCT017 SCT022 BKN070 78.1 77 97% 81 30.01 1016.3
23 01:53 Calm 10.00 Mostly Cloudy BKN017 77 75.9 78.1 75.9 96% 78 30.03 1016.8 0.02
23 00:53 Calm 10.00 A Few Clouds FEW021 77 75.9 96% 78 30.03 1016.9
22 23:53 Calm 10.00 Fair CLR 77 75.9 96% 78 30.03 1016.8
22 22:53 Calm 10.00 Fair CLR 78.1 75.9 93% 81 30.03 1016.9 0.02
22 21:53 N 3 10.00 Fair CLR 78.1 75.9 93% 81 30.03 1016.7
22 20:53 NW 6 10.00 Fair CLR 77 75.9 96% 78 30.04 1017.1 0.02
22 19:53 SW 3 10.00 Light Rain FEW120 75.9 75 91 75.9 97% 75 30.02 1016.6 0.05 0.08
22 18:53 SW 3 7.00 Light Rain FEW120 78.1 73.9 87% 81 30.04 1017.1 0.02
22 17:53 SE 3 10.00 Overcast SCT075 OVC100 77 73.9 90% 78 30.04 1017.1 0.01
22 16:53 SE 12 10.00 Thunderstorm in Vicinity FEW022 FEW036 SCT050 82.9 75.9 79% 91 30.02 1016.6
22 15:53 E 22 G 37 10.00 Thunderstorm in Vicinity Light Rain and Breezy SCT028 BKN039 BKN065 82.9 72 70% 88 30.03 1016.9
22 14:53 SE 17 10.00 A Few Clouds FEW028 90 77 66% 103 30.03 1016.8
22 13:53 E 15 10.00 Partly Cloudy FEW031 SCT049 89.1 77 91 82.9 68% 102 30.04 1017.2
22 12:53 E 14 10.00 A Few Clouds FEW030 90 75.9 63% 102 30.06 1017.8
22 11:53 E 13 10.00 A Few Clouds FEW028 89.1 77 68% 102 30.07 1018.2
22 10:53 SE 12 10.00 A Few Clouds FEW026 87.1 75.9 70% 98 30.08 1018.5
22 09:53 E 12 10.00 A Few Clouds FEW028 89.1 77 68% 102 30.07 1018.1
22 08:53 E 12 10.00 Fair CLR 86 78.1 77% 98 30.07 1018.0
22 07:53 SE 6 10.00 Fair CLR 82.9 78.1 82.9 77 85% 93 30.05 1017.5
22 06:53 SE 7 10.00 A Few Clouds FEW018 82 78.1 88% 91 30.03 1017.0
22 05:53 Calm 10.00 A Few Clouds FEW027 79 77 94% 83 30.03 1016.9
22 04:53 E 5 10.00 Fair CLR 78.1 75.9 93% 81 30.03 1016.7
22 03:53 E 3 10.00 A Few Clouds FEW026 79 75.9 90% 83 30.02 1016.6
22 02:53 Calm 10.00 Partly Cloudy SCT018 78.1 75 90% 81 30.04 1017.2
22 01:53 E 5 10.00 Fair CLR 78.1 75 84.9 78.1 90% 81 30.05 1017.4 0.01
22 00:53 E 7 G 18 10.00 Thunderstorm in Vicinity FEW022 SCT028 BKN037 80.1 73 79% 84 30.07 1018.2 0.01
21 23:53 S 7 10.00 Mostly Cloudy BKN016 BKN038 BKN075 82 75 79% 89 30.08 1018.5
21 22:53 E 6 10.00 Partly Cloudy FEW022 SCT035 SCT044 84 80.1 88% 97 30.07 1018.3
21 21:53 E 9 10.00 Fair CLR 82.9 79 88% 94 30.06 1017.7
Date Time (edt) Wind (mph) Vis. (mi.) Weather Sky Cond. Air Dwpt Max. Min. Relative Humidity Wind Chill (°F) Heat Index (°F) altimeter (in) sea level (mb) 1 hr 3 hr 6 hr
6 hour
Temperature (ºF) Pressure Precipitation (in)